Flag for Pakistan Weather past 2 weeks in Rawalpindi, Pakistan

Now
48 °F

Fog.


Feels Like: 48 °F
Forecast: 51 / 72 °F
Wind: No wind

Location: Islamabad Airport

Current Time: Feb 27, 2015 at 9:10:37 AM

Latest Report: Feb 27, 2015 at 8:00 AM


Visibility: 2 mi

Pressure: 29.98 "Hg

Humidity: 82%

Dew point: 43 °F

Location of RawalpindiLocation

Historic Weather in Rawalpindi — Graph

°F

Rawalpindi temperature yesterday

Maximum temperature yesterday: 64 °F (at 1:00 PM)
Minimum temperature yesterday: 46 °F (at 6:00 AM)
Average temperature yesterday: 55 °F

Past Weeks' High & Low Weather Summary

 TemperatureHumidityPressure
High77 °F (Feb 13, 3:00 PM)100% (Feb 22, 7:00 AM)30.15 "Hg (Feb 22, 7:00 AM)
Low46 °F (Feb 13, 6:00 AM)22% (Feb 12, 2:00 PM)29.68 "Hg (Feb 25, 5:00 AM)
Average60 °F71%29.97 "Hg
* Reported Feb 12 8:00 AM — Feb 27 8:00 AM, Rawalpindi, Weather by CustomWeather, © 2015

Note: Actual official high and low records may vary slightly from our data, if they occured in-between our weather recording intervals... More about our weather records

Advertising

Rawalpindi weather history for previous 24 hours

 ConditionsComfort  
Time TempWeatherWind HumidityBarometerVisibility
8:00 AM
Fri, Feb 27
48 °FFog.No wind82%29.98 "Hg2 mi
7:00 AM48 °FFog.No wind82%29.95 "Hg2 mi
6:00 AM48 °FPassing clouds.No wind82%29.95 "Hg3 mi
5:00 AM48 °FPassing clouds.No wind87%29.92 "Hg4 mi
4:00 AM50 °FPassing clouds.No wind82%29.92 "Hg4 mi
3:00 AM50 °FPassing clouds.No wind82%29.92 "Hg4 mi
2:00 AM52 °FPassing clouds.No wind82%29.92 "Hg4 mi
1:00 AM52 °FPassing clouds.7 mph77%29.92 "Hg4 mi
12:00 AM52 °FPassing clouds.7 mph77%29.92 "Hg4 mi
11:00 PM
Thu, Feb 26
52 °FPassing clouds.7 mph77%29.92 "Hg4 mi
10:00 PM55 °FPassing clouds.7 mph67%29.92 "Hg4 mi
9:00 PM55 °FPassing clouds.9 mph67%29.92 "Hg4 mi
8:00 PM55 °FPassing clouds.12 mph67%29.89 "Hg4 mi
7:00 PM57 °FPassing clouds.12 mph63%29.86 "Hg4 mi
6:00 PM59 °FScattered clouds.16 mph59%29.86 "Hg4 mi
4:00 PM63 °FPartly sunny.18 mph37%29.86 "Hg4 mi
3:00 PM64 °FScattered clouds.18 mph40%29.86 "HgN/A
2:00 PM64 °FScattered clouds.16 mph40%29.86 "HgN/A
1:00 PM64 °FPassing clouds.18 mph49%29.92 "HgN/A
12:00 PM63 °FSunny.18 mph56%29.95 "Hg10 mi
11:00 AM59 °FSunny.9 mph59%29.95 "Hg10 mi
10:00 AM55 °FSunny.9 mph67%29.95 "Hg10 mi
9:00 AM52 °FSunny.9 mph67%29.95 "Hg10 mi
Weather by CustomWeather, © 2015

See weather overviewHow to use our weather pages